Location: Home
(42.5358°N, 72.7383°W)
Time: 09:06:48
(UTC-04:00)

A-11 Canister half - Pass Details

Date: 30 June 2022
Orbit: 1514 x 1685 km, 47.2° (Epoch: 15 August)

Event Time Altitude Azimuth Distance (km) Brightness Sun altitude
Rises 23:23:57 0° 240° (WSW) 4,930 11.6 -21.1°
Reaches altitude 10° 23:27:06 10° 239° (WSW) 3,945 11.0 -21.3°
Maximum altitude 23:37:18 85° 153° (SSE) 1,683 9.0 -22.0°
Drops below altitude 10° 23:47:21 10° 67° (ENE) 3,885 11.2 -22.5°
Sets 23:50:26 0° 67° (ENE) 4,853 11.7 -22.7°
